IRIDIUM 64 [B]

Last updated on Thu Mar 14 2019 03:12:12 GMT+0000 (Coordinated Universal Time)

1 25287U 98021C 19072.53306793 .00000133 00000-0 37001-4 0 9991 2 25287 86.4218 318.8017 0002034 83.8330 276.3100 14.38615581 96047
UTC large
Height (km)
Speed (km/s)
/
Latitude / Longitude
Inclination (degrees)
Orbital Period (minutes)
Azimuth
Elevation
Range (km)
Doppler Factor

Next 0 passes for location: London (51.5072 / 0.1276)

Sorry there are no passes over London.